Loisir ou Compétition : Rejoignez un Club de la Fédération

Résultats

CHAMPIONNAT REGIONAL MJ U15 - KO SPRINT

LES ROUSSES - Stade des Tuffes

KO-QLF Dames

Jury de Compétition

Délégué Technique :
TICHIT PHILIPPE (MJ)
D.T. Adjoint :
FROSSARD CHRISTIAN (SA)
Dir. Epreuve :
ARDIET NICOLAS (MJ)

Caractéristiques de la Piste

Piste :
Stade des Tuffes
Distance :
0.8 km
Point Haut :
 
Point Bas :
 
Montée Tot. :
 
Montée Max. :
 
Homologation :
 

Pénalité Appliquée :
 
Coefficient :
 

Catégorie :
U15
Style :
L
Clt Dos Clt/Cat Code An Nom Prénom Com Club Temps Ecart Points
Classés
1 15 1/U15 FFS2691946 2006 MARGUET LOUISE MJ SC FRASNE DR 2:19.55 00.00
2 23 2/U15 FFS2692171 2005 BILLET LAILA MJ OYE-PALLET 2:20.72 01.17
3 38 3/U15 FFS2687106 2005 CHOUARD LOLA MJ SC GRANDVAUX 2:20.80 01.25
4 19 4/U15 FFS2692223 2006 CART LAMY LISA MJ BOIS D'AMONT 2:21.86 02.31
5 6 5/U15 FFS2692335 2005 DA SILVA MOREIRA LISON MJ SC LESFOURGS 2:22.16 02.61
5 17 5/U15 FFS2676312 2006 COUPAT ANNETTE FZ BESSAT S HIV 2:22.16 02.61
7 1 7/U15 FFS2692160 2005 LALLIET LISA MJ OYE-PALLET 2:23.08 03.53
8 30 8/U15 FFS2687149 2005 GERMAIN MYRTILLE MJ HT JURA SKI 2:23.33 03.78
9 8 9/U15 FFS2692187 2006 MARGREITHER AGATHE MJ HT JURA SKI 2:23.72 04.17
10 12 10/U15 FFS2691595 2006 BOUILLET LOUNA MJ SC GRANDVAUX 2:24.81 05.26
11 5 11/U15 FFS2687258 2005 BOURDIN ALICE MJ SC FRASNE DR 2:25.07 05.52
12 37 12/U15 FFS2660240 2005 VINCENT CHLOE MJ PREMANON SC 2:25.67 06.12
13 2 13/U15 FFS2692161 2005 GLORIOD MANON MJ OYE-PALLET 2:25.92 06.37
14 21 14/U15 FFS2692329 2006 BAUD ROMANE MJ OLYMP MT DOR 2:26.89 07.34
15 16 15/U15 FFS2687284 2005 BOUVERET ELISA MJ SC GRANDVAUX 2:28.23 08.68
16 18 16/U15 FFS2671614 2006 COUVAL MARGUERITE MJ PREMANON SC 2:30.29 10.74
17 36 17/U15 FFS2696668 2006 BOURGON JEANNE MJ SC VERRIERES 2:31.69 12.14
18 34 18/U15 FFS2691910 2006 HENRIET ANNA MJ ES SAUGETTE 2:32.15 12.60
19 11 19/U15 FFS2687130 2006 LONCHAMPT LISON MJ PREMANON SC 2:32.43 12.88
20 29 20/U15 FFS2694328 2005 ARDIET ABIGAEL MJ A.S MOUTHE 2:35.94 16.39
21 39 21/U15 FFS2678504 2005 LORGE ZOE MJ HT JURA SKI 2:36.11 16.56
22 3 22/U15 FFS2703565 2006 NAPPEY ROMANE MJ VAL MORTEAU 2:37.27 17.72
23 31 23/U15 FFS2694212 2005 JEANTET MAE MJ A.S MOUTHE 2:37.81 18.26
24 27 24/U15 FFS2692320 2005 PROVOST MANON MJ OLYMP MT DOR 2:37.88 18.33
25 13 25/U15 FFS2696559 2006 GILLET LUCIE MJ CSR PONTARLI 2:39.48 19.93
26 22 26/U15 FFS2692162 2005 COSTE SALOME MJ OYE-PALLET 2:40.40 20.85
27 24 27/U15 FFS2701778 2006 BOURGEOIS ARMURIER ISALIN MJ CHAUX NEUVE 2:42.21 22.66
28 4 28/U15 FFS2694138 2005 CAT JULIE MJ SC MONT NOIR 2:43.22 23.67
29 33 29/U15 FFS2693330 2005 GACHOD FANTINE MJ VAL MORTEAU 2:43.45 23.90
30 7 30/U15 FFS2692879 2005 CHEVENNEMENT MAELLE MJ VAL MORTEAU 2:44.10 24.55
31 9 31/U15 FFS2692218 2005 SERRUROT INES MJ BOIS D'AMONT 2:48.16 28.61
32 28 32/U15 FFS2703306 2006 LANCON ADOLINE MJ SC GRANDVAUX 2:55.33 35.78
33 20 33/U15 FFS2703775 2006 GRENIER BOLEY EVA MJ SMBM/MORBIER 3:01.34 41.79
34 32 34/U15 FFS2703566 2006 JEANNENEZ CHLOE MJ VAL MORTEAU 3:05.27 45.72
35 25 35/U15 FFS2703779 2006 JEUNET CECILE MJ SMBM/MORBIER 3:29.72 1:10.17
36 26 36/U15 FFS2692975 2006 MARTIN APOLLINE MJ SMBM/MORBIER 3:30.45 1:10.90
37 35 37/U15 FFS2703394 2006 JACKIW PAULINE MJ SC GRANDVAUX 3:37.72 1:18.17
Non partants
10 FFS2671669 2005 GROSJEAN JEHANNE MV VAGNEY ROCHE
14 FFS2701776 2006 MICHAUD FIDEY MANON MJ CHAUX NEUVE